This is the latest recevied weather packets stored in our database for station/object EA3GKP-10. If no packets are shown the sender has not sent any weather packets the latest 1 day(s).
| Time | Temp. | Humidity | Pressure | Rain* | Wind** | Luminosity | Snow |
|---|---|---|---|---|---|---|---|
| 1778025708 | 18.89° C | - | - | 0 mm | 0 m/s | - | - |
| 1778025405 | 18.89° C | - | - | 0 mm | 0 m/s | - | - |
| 1778025102 | 18.89° C | - | - | 0 mm | 1.79 m/s, 113° | - | - |
| 1778024799 | 18.33° C | - | - | 0 mm | 2.68 m/s, 108° | - | - |
| 1778024496 | 18.89° C | - | - | 0 mm | 1.79 m/s, 111° | - | - |
| 1778024193 | 18.89° C | - | - | 0 mm | 0.89 m/s, 122° | - | - |
| 1778023890 | 18.89° C | - | - | 0 mm | 1.34 m/s, 128° | - | - |
| 1778023283 | 19.44° C | - | - | 0 mm | 0.45 m/s, 128° | - | - |
| 1778022980 | 19.44° C | - | - | 0 mm | 2.24 m/s, 139° | - | - |
| 1778022674 | 18.89° C | - | - | 0 mm | 0 m/s | - | - |
| 1778022372 | 19.44° C | - | - | 0 mm | 0 m/s | - | - |
| 1778022066 | 18.89° C | - | - | 0 mm | 0.45 m/s, 86° | - | - |
| 1778021763 | 19.44° C | - | - | 0 mm | 0 m/s | - | - |
| 1778021460 | 19.44° C | - | - | 0 mm | 0.89 m/s, 295° | - | - |
| 1778021155 | 18.89° C | - | - | 0 mm | 0.45 m/s, 30° | - | - |
| 1778020852 | 19.44° C | - | - | 0 mm | 1.79 m/s, 343° | - | - |
| 1778020550 | 18.89° C | - | - | 0 mm | 0.89 m/s, 329° | - | - |
| 1778020247 | 18.89° C | - | - | 0 mm | 0.89 m/s, 300° | - | - |
| 1778019939 | 19.44° C | - | - | 0 mm | 0.89 m/s, 325° | - | - |
| 1778019333 | 20° C | - | - | 0 mm | 0.89 m/s, 17° | - | - |
| 1778019030 | 20° C | - | - | 0 mm | 0.45 m/s, 312° | - | - |
| 1778018725 | 19.44° C | - | - | 0 mm | 0.45 m/s, 72° | - | - |
| 1778018419 | 19.44° C | - | - | 0 mm | 0 m/s | - | - |
| 1778018126 | 19.44° C | - | - | 0 mm | 0 m/s | - | - |
| 1778017810 | 19.44° C | - | - | 0 mm | 0 m/s | - | - |
* Rain latest hour (hover to see other rain measurements)
** Current wind speed in m/s (hover to see current wind gust speed)